Location: Quedlinburg
(51.7921°N, 11.1414°E)
Time: 08:49:49
(UTC+02:00)

SO-50 - Pass Details

Date: 16 March 2026
Orbit: 567 x 673 km, 64.6° (Epoch: 13 April)

Event Time Altitude Azimuth Distance (km) Brightness Sun altitude
Rises 19:35:35 0° 245° (WSW) 2,954 ? -12.2°
Reaches altitude 10° 19:37:58 10° 253° (WSW) 2,062 ? -12.5°
Maximum altitude 19:42:26 42° 324° (NW) 951 ? -13.2°
Drops below altitude 10° 19:47:00 10° 36° (NE) 2,109 ? -13.9°
Sets 19:49:27 0° 43° (NE) 3,031 ? -14.2°
